TimeMST,TemperatureF,Dew PointF,Humidity,Sea Level PressureIn,VisibilityMPH,Wind Direction,Wind SpeedMPH,Gust SpeedMPH,PrecipitationIn,Events,Conditions,WindDirDegrees,DateUTC
12:53 AM,17.1,12.0,81,30.36,10.0,SE,11.5,-,N/A,,Clear,130,2013-01-24 07:53:00
1:53 AM,16.0,12.0,84,30.35,10.0,SE,10.4,-,N/A,,Clear,140,2013-01-24 08:53:00
2:10 AM,15.8,12.2,86,30.27,10.0,SE,10.4,-,N/A,,Mostly Cloudy,130,2013-01-24 09:10:00
2:53 AM,16.0,12.0,84,30.34,10.0,SSE,12.7,-,N/A,,Overcast,160,2013-01-24 09:53:00
3:53 AM,16.0,12.0,84,30.34,10.0,SSE,10.4,-,N/A,,Overcast,160,2013-01-24 10:53:00
4:27 AM,15.8,12.2,86,30.22,10.0,SSE,13.8,-,N/A,,Overcast,160,2013-01-24 11:27:00
4:53 AM,14.0,10.9,88,30.32,10.0,SSE,12.7,-,N/A,,Mostly Cloudy,150,2013-01-24 11:53:00
5:06 AM,14.0,10.4,86,30.20,10.0,SSE,13.8,-,N/A,,Scattered Clouds,160,2013-01-24 12:06:00
5:53 AM,12.9,10.9,92,30.33,10.0,SSE,10.4,-,N/A,,Clear,150,2013-01-24 12:53:00
6:06 AM,12.2,10.4,92,30.20,10.0,SSE,13.8,-,N/A,,Scattered Clouds,150,2013-01-24 13:06:00
6:15 AM,12.2,10.4,92,30.20,10.0,SSE,12.7,-,N/A,,Mostly Cloudy,150,2013-01-24 13:15:00
6:53 AM,12.9,10.0,88,30.32,10.0,SSE,12.7,-,N/A,,Scattered Clouds,150,2013-01-24 13:53:00
7:53 AM,14.0,10.9,88,30.30,10.0,South,18.4,23.0,N/A,,Clear,170,2013-01-24 14:53:00
8:28 AM,15.8,12.2,86,30.14,10.0,South,18.4,-,N/A,,Partly Cloudy,170,2013-01-24 15:28:00
8:53 AM,16.0,12.0,84,30.27,10.0,South,20.7,25.3,N/A,,Mostly Cloudy,170,2013-01-24 15:53:00
9:53 AM,19.0,14.0,81,30.26,10.0,South,19.6,25.3,N/A,,Overcast,180,2013-01-24 16:53:00
10:53 AM,21.0,16.0,81,30.23,10.0,South,15.0,21.9,N/A,,Overcast,180,2013-01-24 17:53:00
11:15 AM,21.2,17.6,86,30.08,10.0,South,15.0,-,N/A,,Scattered Clouds,180,2013-01-24 18:15:00
11:53 AM,24.1,18.0,77,30.18,10.0,South,15.0,-,N/A,,Clear,180,2013-01-24 18:53:00
12:53 PM,28.9,19.9,69,30.12,10.0,South,15.0,-,N/A,,Clear,170,2013-01-24 19:53:00
1:53 PM,34.0,21.9,61,30.07,10.0,South,12.7,-,N/A,,Clear,180,2013-01-24 20:53:00
2:53 PM,37.9,23.0,55,30.05,10.0,SSE,5.8,-,N/A,,Clear,160,2013-01-24 21:53:00
3:53 PM,39.0,23.0,53,30.04,10.0,South,6.9,-,N/A,,Clear,170,2013-01-24 22:53:00
4:53 PM,32.0,23.0,69,30.08,10.0,SSE,5.8,-,N/A,,Clear,160,2013-01-24 23:53:00
5:53 PM,33.1,23.0,66,30.10,10.0,SSE,8.1,-,N/A,,Clear,160,2013-01-25 00:53:00
6:53 PM,30.0,21.9,72,30.12,10.0,South,5.8,-,N/A,,Clear,190,2013-01-25 01:53:00
7:53 PM,28.9,21.0,72,30.13,10.0,West,3.5,-,N/A,,Clear,270,2013-01-25 02:53:00
8:53 PM,28.0,21.9,78,30.17,10.0,WNW,4.6,-,N/A,,Clear,290,2013-01-25 03:53:00
9:53 PM,28.0,23.0,81,30.19,10.0,West,3.5,-,N/A,,Clear,270,2013-01-25 04:53:00
10:53 PM,30.9,24.1,76,30.21,10.0,NNW,8.1,-,N/A,,Clear,330,2013-01-25 05:53:00
11:53 PM,33.1,23.0,66,30.20,10.0,NNW,11.5,-,N/A,,Clear,340,2013-01-25 06:53:00